This is the latest recevied weather packets stored in our database for station/object OK1ZDJ-13. If no packets are shown the sender has not sent any weather packets the latest 10 day(s).
| Time | Temp. | Humidity | Pressure | Rain* | Wind** | Luminosity | Snow |
|---|---|---|---|---|---|---|---|
| 1777828676 | 23.89° C | 27% | 1014.3 hPa | - | - | - | - |
| 1777828076 | 23.89° C | 26% | 1014.3 hPa | - | - | - | - |
| 1777827477 | 25° C | 24% | 1014.3 hPa | - | - | - | - |
| 1777826876 | 25° C | 24% | 1014.4 hPa | - | - | - | - |
| 1777826277 | 25° C | 24% | 1014.5 hPa | - | - | - | - |
| 1777825677 | 25.56° C | 23% | 1014.4 hPa | - | - | - | - |
| 1777825076 | 26.11° C | 23% | 1014.4 hPa | - | - | - | - |
| 1777824477 | 26.67° C | 22% | 1014.4 hPa | - | - | - | - |
| 1777823876 | 27.22° C | 20% | 1014.4 hPa | - | - | - | - |
| 1777823277 | 27.78° C | 19% | 1014.3 hPa | - | - | - | - |
| 1777822681 | 29.44° C | 18% | 1014.5 hPa | - | - | - | - |
| 1777822075 | 30° C | 18% | 1014.6 hPa | - | - | - | - |
| 1777821475 | 30° C | 18% | 1014.7 hPa | - | - | - | - |
| 1777820875 | 30° C | 17% | 1014.7 hPa | - | - | - | - |
| 1777820275 | 29.44° C | 19% | 1014.8 hPa | - | - | - | - |
| 1777819675 | 27.78° C | 20% | 1015 hPa | - | - | - | - |
| 1777819075 | 26.11° C | 21% | 1015.1 hPa | - | - | - | - |
| 1777818475 | 25.56° C | 22% | 1015.2 hPa | - | - | - | - |
| 1777817875 | 26.11° C | 22% | 1015.4 hPa | - | - | - | - |
| 1777817275 | 26.11° C | 22% | 1015.4 hPa | - | - | - | - |
| 1777816676 | 25.56° C | 23% | 1015.5 hPa | - | - | - | - |
| 1777816075 | 25.56° C | 22% | 1015.7 hPa | - | - | - | - |
| 1777815476 | 25.56° C | 23% | 1015.8 hPa | - | - | - | - |
| 1777814275 | 25.56° C | 21% | 1016.1 hPa | - | - | - | - |
| 1777813675 | 25.56° C | 21% | 1016.2 hPa | - | - | - | - |
* Rain since midnight (hover to see other rain measurements)
** Current wind speed in m/s (hover to see current wind gust speed)